"Sample Date","Sample Time","Sample Value","Units","Flow Rate","Sample Interval","Number Channels","Micron Size 0","Counts/Channel 0","Micron Size 1","Counts/Channel 1","Micron Size 2","Counts/Channel 2","Micron Size 3","Counts/Channel 3","Micron Size 4","Counts/Channel 4","Micron Size 5","Counts/Channel 5","Micron Size 6","Counts/Channel 6","Micron Size 7","Counts/Channel 7","Micron Size 8","Counts/Channel 8","Micron Size 9","Counts/Channel 9","Micron Size 10","Counts/Channel 10","Micron Size 11","Counts/Channel 11","Micron Size 12","Counts/Channel 12","Micron Size 13","Counts/Channel 13","Micron Size 14","Counts/Channel 14","Micron Size 15","Counts/Channel 15","Micron Size 16","Counts/Channel 16","Micron Size 17","Counts/Channel 17","Micron Size 18","Counts/Channel 18","Micron Size 19","Counts/Channel 19","Micron Size 20","Counts/Channel 20","Micron Size 21","Counts/Channel 21","Micron Size 22","Counts/Channel 22","Micron Size 23","Counts/Channel 23","Micron Size 24","Counts/Channel 24","Micron Size 25","Counts/Channel 25","Micron Size 26","Counts/Channel 26","Micron Size 27","Counts/Channel 27","Micron Size 28","Counts/Channel 28","Micron Size 29","Counts/Channel 29","Micron Size 30","Counts/Channel 30","Micron Size 31","Counts/Channel 31"
"03/11/08","06:00:00",34393.000,"cc",28369.156,6.00,6,0.100,24807.000,0.200,3902.000,0.300,2170.000,0.500,2572.000,1.000,942.000,5.000,0
"03/11/08","06:00:06",33909.000,"cc",28373.467,6.00,6,0.100,24586.000,0.200,3813.000,0.300,2107.000,0.500,2474.000,1.000,929.000,5.000,0
"03/11/08","06:00:12",33989.000,"cc",28256.930,6.00,6,0.100,24696.000,0.200,3795.000,0.300,2118.000,0.500,2515.000,1.000,865.000,5.000,0
"03/11/08","06:00:18",33765.000,"cc",28283.172,6.00,6,0.100,24609.000,0.200,3775.000,0.300,2075.000,0.500,2444.000,1.000,862.000,5.000,0
"03/11/08","06:00:24",33947.000,"cc",28211.918,6.00,6,0.100,24817.000,0.200,3784.000,0.300,2058.000,0.500,2440.000,1.000,848.000,5.000,0
"03/11/08","06:00:30",34046.000,"cc",28326.625,6.00,6,0.100,24740.000,0.200,3886.000,0.300,2105.000,0.500,2459.000,1.000,856.000,5.000,0
"03/11/08","06:00:36",34035.000,"cc",28324.545,6.00,6,0.100,24748.000,0.200,3869.000,0.300,2125.000,0.500,2436.000,1.000,857.000,5.000,0
"03/11/08","06:00:42",34287.000,"cc",28333.197,6.00,6,0.100,24816.000,0.200,4048.000,0.300,2036.000,0.500,2494.000,1.000,893.000,5.000,0
"03/11/08","06:00:48",34144.000,"cc",28415.084,6.00,6,0.100,24919.000,0.200,3880.000,0.300,2043.000,0.500,2428.000,1.000,874.000,5.000,0
"03/11/08","06:00:54",33748.000,"cc",28208.721,6.00,6,0.100,24556.000,0.200,3721.000,0.300,2123.000,0.500,2455.000,1.000,893.000,5.000,0
"03/11/08","06:01:00",33853.000,"cc",28331.471,6.00,6,0.100,24780.000,0.200,3670.000,0.300,2011.000,0.500,2469.000,1.000,923.000,5.000,0
"03/11/08","06:01:06",33961.000,"cc",28325.545,6.00,6,0.100,24748.000,0.200,3861.000,0.300,2022.000,0.500,2450.000,1.000,880.000,5.000,0
"03/11/08","06:01:12",33611.000,"cc",28240.606,6.00,6,0.100,24677.000,0.200,3823.000,0.300,2011.000,0.500,2310.000,1.000,790.000,5.000,0
"03/11/08","06:01:18",33567.000,"cc",28315.518,6.00,6,0.100,24440.000,0.200,3885.000,0.300,2091.000,0.500,2290.000,1.000,860.000,5.000,1.000
"03/11/08","06:01:24",33962.000,"cc",28253.238,6.00,6,0.100,24751.000,0.200,3852.000,0.300,2058.000,0.500,2385.000,1.000,916.000,5.000,0
"03/11/08","06:01:30",33894.000,"cc",28305.504,6.00,6,0.100,24619.000,0.200,3756.000,0.300,2120.000,0.500,2503.000,1.000,896.000,5.000,0
"03/11/08","06:01:36",33812.000,"cc",28374.520,6.00,6,0.100,24692.000,0.200,3803.000,0.300,2114.000,0.500,2384.000,1.000,819.000,5.000,0
"03/11/08","06:01:42",33853.000,"cc",28359.979,6.00,6,0.100,24778.000,0.200,3800.000,0.300,2074.000,0.500,2325.000,1.000,876.000,5.000,0
"03/11/08","06:01:48",33920.000,"cc",28247.166,6.00,6,0.100,24652.000,0.200,3922.000,0.300,2030.000,0.500,2450.000,1.000,866.000,5.000,0
"03/11/08","06:01:54",34330.000,"cc",28300.273,6.00,6,0.100,25074.000,0.200,3836.000,0.300,2081.000,0.500,2457.000,1.000,882.000,5.000,0
"03/11/08","06:02:00",33790.000,"cc",28355.264,6.00,6,0.100,24747.000,0.200,3818.000,0.300,2027.000,0.500,2345.000,1.000,853.000,5.000,0
"03/11/08","06:02:06",34143.000,"cc",28332.330,6.00,6,0.100,24861.000,0.200,3810.000,0.300,2122.000,0.500,2493.000,1.000,857.000,5.000,0
"03/11/08","06:02:12",33644.000,"cc",28271.754,6.00,6,0.100,24721.000,0.200,3668.000,0.300,2066.000,0.500,2392.000,1.000,797.000,5.000,0
"03/11/08","06:02:18",33787.000,"cc",28343.461,6.00,6,0.100,24411.000,0.200,3752.000,0.300,2177.000,0.500,2494.000,1.000,953.000,5.000,0
"03/11/08","06:02:24",34195.000,"cc",28355.424,6.00,6,0.100,25104.000,0.200,3715.000,0.300,2108.000,0.500,2428.000,1.000,840.000,5.000,0
"03/11/08","06:02:30",33702.000,"cc",28379.305,6.00,6,0.100,24502.000,0.200,3855.000,0.300,2087.000,0.500,2460.000,1.000,798.000,5.000,0
"03/11/08","06:02:36",33905.000,"cc",28344.420,6.00,6,0.100,24603.000,0.200,3865.000,0.300,2087.000,0.500,2464.000,1.000,886.000,5.000,0
"03/11/08","06:02:42",33603.000,"cc",28285.828,6.00,6,0.100,24594.000,0.200,3764.000,0.300,2097.000,0.500,2313.000,1.000,835.000,5.000,0
"03/11/08","06:02:48",33496.000,"cc",28279.508,6.00,6,0.100,24491.000,0.200,3807.000,0.300,2054.000,0.500,2267.000,1.000,877.000,5.000,0
"03/11/08","06:02:54",33387.000,"cc",28267.973,6.00,6,0.100,24451.000,0.200,3736.000,0.300,1967.000,0.500,2361.000,1.000,872.000,5.000,0
"03/11/08","06:03:00",33824.000,"cc",28268.949,6.00,6,0.100,24721.000,0.200,3882.000,0.300,2061.000,0.500,2344.000,1.000,816.000,5.000,0
"03/11/08","06:03:06",33529.000,"cc",28307.871,6.00,6,0.100,24569.000,0.200,3788.000,0.300,2006.000,0.500,2308.000,1.000,858.000,5.000,0
"03/11/08","06:03:12",33871.000,"cc",28299.219,6.00,6,0.100,24642.000,0.200,3853.000,0.300,2166.000,0.500,2352.000,1.000,858.000,5.000,0
"03/11/08","06:03:18",34178.000,"cc",28320.078,6.00,6,0.100,24884.000,0.200,3815.000,0.300,2192.000,0.500,2415.000,1.000,872.000,5.000,0
"03/11/08","06:03:24",33623.000,"cc",28390.408,6.00,6,0.100,24446.000,0.200,3794.000,0.300,2009.000,0.500,2450.000,1.000,924.000,5.000,0
"03/11/08","06:03:30",33844.000,"cc",28326.049,6.00,6,0.100,24640.000,0.200,3768.000,0.300,2072.000,0.500,2451.000,1.000,913.000,5.000,0
"03/11/08","06:03:36",33917.000,"cc",28272.020,6.00,6,0.100,24744.000,0.200,3837.000,0.300,2072.000,0.500,2420.000,1.000,844.000,5.000,0
"03/11/08","06:03:42",33643.000,"cc",28357.438,6.00,6,0.100,24538.000,0.200,3853.000,0.300,1985.000,0.500,2407.000,1.000,860.000,5.000,0
"03/11/08","06:03:48",34284.000,"cc",28416.422,6.00,6,0.100,25044.000,0.200,3793.000,0.300,2077.000,0.500,2494.000,1.000,876.000,5.000,0
"03/11/08","06:03:54",34030.000,"cc",28352.832,6.00,6,0.100,24888.000,0.200,3774.000,0.300,2022.000,0.500,2426.000,1.000,920.000,5.000,0
"03/11/08","06:04:00",34257.000,"cc",28250.711,6.00,6,0.100,24807.000,0.200,3905.000,0.300,2106.000,0.500,2546.000,1.000,893.000,5.000,0
"03/11/08","06:04:06",34294.000,"cc",28330.479,6.00,6,0.100,24691.000,0.200,3990.000,0.300,2141.000,0.500,2581.000,1.000,891.000,5.000,0
"03/11/08","06:04:12",34318.000,"cc",28357.016,6.00,6,0.100,24936.000,0.200,3842.000,0.300,2053.000,0.500,2564.000,1.000,923.000,5.000,0
"03/11/08","06:04:18",33834.000,"cc",28329.604,6.00,6,0.100,24561.000,0.200,3837.000,0.300,2111.000,0.500,2460.000,1.000,865.000,5.000,0
"03/11/08","06:04:24",34641.000,"cc",28208.074,6.00,6,0.100,25141.000,0.200,3908.000,0.300,2147.000,0.500,2542.000,1.000,903.000,5.000,0
"03/11/08","06:04:30",34221.000,"cc",28249.147,6.00,6,0.100,24825.000,0.200,3910.000,0.300,2190.000,0.500,2472.000,1.000,824.000,5.000,0
"03/11/08","06:04:36",34221.000,"cc",28348.580,6.00,6,0.100,24887.000,0.200,3868.000,0.300,2200.000,0.500,2455.000,1.000,811.000,5.000,0
"03/11/08","06:04:42",34193.000,"cc",28286.031,6.00,6,0.100,24576.000,0.200,4079.000,0.300,2205.000,0.500,2459.000,1.000,874.000,5.000,0
"03/11/08","06:04:48",34580.000,"cc",28281.148,6.00,6,0.100,24920.000,0.200,4183.000,0.300,2174.000,0.500,2427.000,1.000,876.000,5.000,0
"03/11/08","06:04:54",34319.000,"cc",28336.002,6.00,6,0.100,25177.000,0.200,3875.000,0.300,2086.000,0.500,2337.000,1.000,844.000,5.000,0
"03/11/08","06:05:00",33551.000,"cc",28440.658,6.00,6,0.100,24424.000,0.200,3877.000,0.300,1991.000,0.500,2459.000,1.000,800.000,5.000,0
"03/11/08","06:05:06",34022.000,"cc",28299.551,6.00,6,0.100,25006.000,0.200,3834.000,0.300,2101.000,0.500,2275.000,1.000,806.000,5.000,0
"03/11/08","06:05:12",33926.000,"cc",28425.160,6.00,6,0.100,24866.000,0.200,3845.000,0.300,2148.000,0.500,2301.000,1.000,766.000,5.000,0
"03/11/08","06:05:18",33953.000,"cc",28411.004,6.00,6,0.100,24905.000,0.200,3775.000,0.300,2043.000,0.500,2367.000,1.000,863.000,5.000,0
"03/11/08","06:05:24",34191.000,"cc",28283.445,6.00,6,0.100,24917.000,0.200,3929.000,0.300,2091.000,0.500,2376.000,1.000,878.000,5.000,0
"03/11/08","06:05:30",34495.000,"cc",28346.297,6.00,6,0.100,25230.000,0.200,3907.000,0.300,2140.000,0.500,2390.000,1.000,828.000,5.000,0
"03/11/08","06:05:36",34086.000,"cc",28334.150,6.00,6,0.100,24982.000,0.200,3869.000,0.300,2072.000,0.500,2345.000,1.000,818.000,5.000,0
"03/11/08","06:05:42",34153.000,"cc",28422.397,6.00,6,0.100,24850.000,0.200,3842.000,0.300,2183.000,0.500,2455.000,1.000,823.000,5.000,0
"03/11/08","06:05:48",33994.000,"cc",28291.195,6.00,6,0.100,24757.000,0.200,3833.000,0.300,2096.000,0.500,2471.000,1.000,837.000,5.000,0
"03/11/08","06:05:54",34260.000,"cc",28319.811,6.00,6,0.100,24921.000,0.200,3837.000,0.300,2150.000,0.500,2440.000,1.000,912.000,5.000,0
"03/11/08","06:06:00",34111.000,"cc",28256.315,6.00,6,0.100,24827.000,0.200,3883.000,0.300,2135.000,0.500,2443.000,1.000,823.000,5.000,0
"03/11/08","06:06:06",34123.000,"cc",28396.012,6.00,6,0.100,24789.000,0.200,3889.000,0.300,2150.000,0.500,2506.000,1.000,789.000,5.000,0
"03/11/08","06:06:12",34443.000,"cc",28331.336,6.00,6,0.100,25044.000,0.200,3960.000,0.300,2128.000,0.500,2494.000,1.000,817.000,5.000,0
"03/11/08","06:06:18",34006.000,"cc",28277.557,6.00,6,0.100,24911.000,0.200,3816.000,0.300,2039.000,0.500,2418.000,1.000,822.000,5.000,0
"03/11/08","06:06:24",34220.000,"cc",28288.856,6.00,6,0.100,25020.000,0.200,3772.000,0.300,2121.000,0.500,2513.000,1.000,794.000,5.000,0
"03/11/08","06:06:30",33820.000,"cc",28308.709,6.00,6,0.100,24740.000,0.200,3735.000,0.300,2037.000,0.500,2461.000,1.000,847.000,5.000,0
"03/11/08","06:06:36",34836.000,"cc",28175.447,6.00,6,0.100,25080.000,0.200,4004.000,0.300,2272.000,0.500,2619.000,1.000,861.000,5.000,0
"03/11/08","06:06:42",34672.000,"cc",28173.008,6.00,6,0.100,24857.000,0.200,4016.000,0.300,2187.000,0.500,2650.000,1.000,962.000,5.000,0
"03/11/08","06:06:48",34826.000,"cc",28277.744,6.00,6,0.100,25117.000,0.200,4082.000,0.300,2181.000,0.500,2549.000,1.000,897.000,5.000,0
"03/11/08","06:06:54",35251.000,"cc",28346.488,6.00,6,0.100,25284.000,0.200,4020.000,0.300,2243.000,0.500,2758.000,1.000,946.000,5.000,0
"03/11/08","06:07:00",35379.000,"cc",28149.695,6.00,6,0.100,25326.000,0.200,4024.000,0.300,2329.000,0.500,2721.000,1.000,979.000,5.000,0
"03/11/08","06:07:06",35756.000,"cc",28317.895,6.00,6,0.100,25381.000,0.200,4196.000,0.300,2384.000,0.500,2900.000,1.000,895.000,5.000,0
"03/11/08","06:07:12",34499.000,"cc",28520.301,6.00,6,0.100,24994.000,0.200,3807.000,0.300,2122.000,0.500,2646.000,1.000,930.000,5.000,0
"03/11/08","06:07:18",34273.000,"cc",28458.141,6.00,6,0.100,25069.000,0.200,3873.000,0.300,2035.000,0.500,2471.000,1.000,825.000,5.000,0
"03/11/08","06:07:24",34492.000,"cc",28250.789,6.00,6,0.100,25037.000,0.200,3868.000,0.300,2106.000,0.500,2613.000,1.000,868.000,5.000,0
"03/11/08","06:07:30",34578.000,"cc",28327.764,6.00,6,0.100,24998.000,0.200,3927.000,0.300,2109.000,0.500,2589.000,1.000,955.000,5.000,0
"03/11/08","06:07:36",34280.000,"cc",28202.363,6.00,6,0.100,24701.000,0.200,3842.000,0.300,2173.000,0.500,2633.000,1.000,931.000,5.000,0
"03/11/08","06:07:42",34518.000,"cc",28224.461,6.00,6,0.100,24874.000,0.200,3908.000,0.300,2203.000,0.500,2624.000,1.000,909.000,5.000,0
"03/11/08","06:07:48",35680.000,"cc",28219.277,6.00,6,0.100,25454.000,0.200,4053.000,0.300,2309.000,0.500,2857.000,1.000,1007.000,5.000,0
"03/11/08","06:07:54",35005.000,"cc",28391.129,6.00,6,0.100,24920.000,0.200,4154.000,0.300,2257.000,0.500,2780.000,1.000,894.000,5.000,0
"03/11/08","06:08:00",35327.000,"cc",28353.002,6.00,6,0.100,25176.000,0.200,4062.000,0.300,2349.000,0.500,2806.000,1.000,934.000,5.000,0
"03/11/08","06:08:06",35765.000,"cc",28345.789,6.00,6,0.100,25578.000,0.200,4105.000,0.300,2345.000,0.500,2772.000,1.000,965.000,5.000,0
"03/11/08","06:08:12",34772.000,"cc",28378.541,6.00,6,0.100,25195.000,0.200,3856.000,0.300,2243.000,0.500,2574.000,1.000,904.000,5.000,0
"03/11/08","06:08:18",35013.000,"cc",28251.231,6.00,6,0.100,25002.000,0.200,4073.000,0.300,2253.000,0.500,2749.000,1.000,936.000,5.000,0
"03/11/08","06:08:24",35134.000,"cc",28358.525,6.00,6,0.100,25275.000,0.200,4067.000,0.300,2239.000,0.500,2701.000,1.000,852.000,5.000,0
"03/11/08","06:08:30",34460.000,"cc",28344.996,6.00,6,0.100,24910.000,0.200,3919.000,0.300,2137.000,0.500,2549.000,1.000,945.000,5.000,0
"03/11/08","06:08:36",34716.000,"cc",28308.125,6.00,6,0.100,25098.000,0.200,4039.000,0.300,2066.000,0.500,2574.000,1.000,939.000,5.000,0
"03/11/08","06:08:42",34972.000,"cc",28184.867,6.00,6,0.100,25224.000,0.200,3942.000,0.300,2278.000,0.500,2656.000,1.000,872.000,5.000,0
"03/11/08","06:08:48",34660.000,"cc",28418.453,6.00,6,0.100,25125.000,0.200,3774.000,0.300,2208.000,0.500,2624.000,1.000,929.000,5.000,0
"03/11/08","06:08:54",34539.000,"cc",28274.174,6.00,6,0.100,24867.000,0.200,3897.000,0.300,2166.000,0.500,2710.000,1.000,899.000,5.000,0
"03/11/08","06:09:00",35254.000,"cc",28295.479,6.00,6,0.100,25149.000,0.200,4056.000,0.300,2288.000,0.500,2853.000,1.000,908.000,5.000,0
"03/11/08","06:09:06",34967.000,"cc",28379.711,6.00,6,0.100,25198.000,0.200,3946.000,0.300,2261.000,0.500,2592.000,1.000,970.000,5.000,0
"03/11/08","06:09:12",34766.000,"cc",28370.791,6.00,6,0.100,25134.000,0.200,3905.000,0.300,2175.000,0.500,2635.000,1.000,917.000,5.000,0
"03/11/08","06:09:18",34803.000,"cc",28152.107,6.00,6,0.100,25018.000,0.200,3949.000,0.300,2317.000,0.500,2624.000,1.000,895.000,5.000,0
"03/11/08","06:09:24",35408.000,"cc",28361.195,6.00,6,0.100,25125.000,0.200,4146.000,0.300,2359.000,0.500,2806.000,1.000,972.000,5.000,0
"03/11/08","06:09:30",36133.000,"cc",28306.891,6.00,6,0.100,25448.000,0.200,4248.000,0.300,2428.000,0.500,2949.000,1.000,1060.000,5.000,0
"03/11/08","06:09:36",37650.000,"cc",28230.463,6.00,6,0.100,26063.000,0.200,4836.000,0.300,2718.000,0.500,3010.000,1.000,1023.000,5.000,0
"03/11/08","06:09:42",35630.000,"cc",28392.910,6.00,6,0.100,25363.000,0.200,4040.000,0.300,2349.000,0.500,2889.000,1.000,989.000,5.000,0
"03/11/08","06:09:48",34622.000,"cc",28462.012,6.00,6,0.100,24982.000,0.200,3999.000,0.300,2152.000,0.500,2592.000,1.000,897.000,5.000,0
"03/11/08","06:09:54",34726.000,"cc",28216.332,6.00,6,0.100,24734.000,0.200,4043.000,0.300,2152.000,0.500,2824.000,1.000,973.000,5.000,0
"03/11/08","06:10:00",34942.000,"cc",28262.447,6.00,6,0.100,25049.000,0.200,3932.000,0.300,2285.000,0.500,2727.000,1.000,949.000,5.000,0
"03/11/08","06:10:06",35175.000,"cc",28213.457,6.00,6,0.100,25277.000,0.200,4087.000,0.300,2230.000,0.500,2685.000,1.000,896.000,5.000,0
"03/11/08","06:10:12",35587.000,"cc",28461.969,6.00,6,0.100,25671.000,0.200,4185.000,0.300,2335.000,0.500,2505.000,1.000,891.000,5.000,0
"03/11/08","06:10:18",34547.000,"cc",28303.660,6.00,6,0.100,24914.000,0.200,3887.000,0.300,2169.000,0.500,2661.000,1.000,916.000,5.000,0
"03/11/08","06:10:24",35315.000,"cc",28366.332,6.00,6,0.100,25220.000,0.200,4114.000,0.300,2269.000,0.500,2771.000,1.000,941.000,5.000,0
"03/11/08","06:10:30",34788.000,"cc",28327.291,6.00,6,0.100,25016.000,0.200,4002.000,0.300,2147.000,0.500,2654.000,1.000,969.000,5.000,0
"03/11/08","06:10:36",34937.000,"cc",28321.557,6.00,6,0.100,25285.000,0.200,4059.000,0.300,2189.000,0.500,2556.000,1.000,848.000,5.000,0
"03/11/08","06:10:42",34819.000,"cc",28253.727,6.00,6,0.100,24934.000,0.200,3942.000,0.300,2271.000,0.500,2702.000,1.000,970.000,5.000,0
"03/11/08","06:10:48",34850.000,"cc",28397.334,6.00,6,0.100,25182.000,0.200,4013.000,0.300,2184.000,0.500,2585.000,1.000,886.000,5.000,0
"03/11/08","06:10:54",35228.000,"cc",28247.135,6.00,6,0.100,25336.000,0.200,4128.000,0.300,2269.000,0.500,2666.000,1.000,829.000,5.000,0
"03/11/08","06:11:00",35158.000,"cc",28414.076,6.00,6,0.100,25258.000,0.200,4107.000,0.300,2271.000,0.500,2659.000,1.000,863.000,5.000,0
"03/11/08","06:11:06",35412.000,"cc",28257.690,6.00,6,0.100,25299.000,0.200,4078.000,0.300,2300.000,0.500,2800.000,1.000,935.000,5.000,0
"03/11/08","06:11:12",34515.000,"cc",28287.070,6.00,6,0.100,24981.000,0.200,3862.000,0.300,2172.000,0.500,2641.000,1.000,859.000,5.000,0
"03/11/08","06:11:18",34621.000,"cc",28471.264,6.00,6,0.100,25082.000,0.200,4012.000,0.300,2169.000,0.500,2515.000,1.000,843.000,5.000,0
"03/11/08","06:11:24",34702.000,"cc",28277.955,6.00,6,0.100,25046.000,0.200,3934.000,0.300,2113.000,0.500,2672.000,1.000,937.000,5.000,0
"03/11/08","06:11:30",34167.000,"cc",28449.779,6.00,6,0.100,25140.000,0.200,3768.000,0.300,2099.000,0.500,2357.000,1.000,803.000,5.000,0
"03/11/08","06:11:36",34999.000,"cc",28127.691,6.00,6,0.100,25002.000,0.200,4025.000,0.300,2247.000,0.500,2722.000,1.000,1003.000,5.000,0
"03/11/08","06:11:42",34787.000,"cc",28208.670,6.00,6,0.100,24944.000,0.200,3995.000,0.300,2209.000,0.500,2720.000,1.000,919.000,5.000,0
"03/11/08","06:11:48",35111.000,"cc",28268.113,6.00,6,0.100,25282.000,0.200,3981.000,0.300,2231.000,0.500,2713.000,1.000,904.000,5.000,0
"03/11/08","06:11:54",34374.000,"cc",28489.522,6.00,6,0.100,24835.000,0.200,3940.000,0.300,2187.000,0.500,2547.000,1.000,865.000,5.000,0
"03/11/08","06:12:00",34022.000,"cc",28293.861,6.00,6,0.100,24738.000,0.200,3819.000,0.300,2085.000,0.500,2494.000,1.000,886.000,5.000,0
"03/11/08","06:12:06",34695.000,"cc",28254.018,6.00,6,0.100,25152.000,0.200,3837.000,0.300,2156.000,0.500,2626.000,1.000,924.000,5.000,0
"03/11/08","06:12:12",34363.000,"cc",28334.266,6.00,6,0.100,25055.000,0.200,3793.000,0.300,2057.000,0.500,2585.000,1.000,873.000,5.000,0
"03/11/08","06:12:18",35099.000,"cc",28177.807,6.00,6,0.100,25220.000,0.200,4084.000,0.300,2243.000,0.500,2650.000,1.000,902.000,5.000,0
"03/11/08","06:12:24",35308.000,"cc",28419.186,6.00,6,0.100,25467.000,0.200,4027.000,0.300,2208.000,0.500,2732.000,1.000,874.000,5.000,0
"03/11/08","06:12:30",34631.000,"cc",28274.400,6.00,6,0.100,24945.000,0.200,4088.000,0.300,2116.000,0.500,2603.000,1.000,879.000,5.000,0
"03/11/08","06:12:36",34778.000,"cc",28341.072,6.00,6,0.100,25209.000,0.200,4003.000,0.300,2152.000,0.500,2553.000,1.000,861.000,5.000,0
"03/11/08","06:12:42",34695.000,"cc",28233.590,6.00,6,0.100,24658.000,0.200,4136.000,0.300,2190.000,0.500,2774.000,1.000,937.000,5.000,0
"03/11/08","06:12:48",36045.000,"cc",28259.648,6.00,6,0.100,25985.000,0.200,4154.000,0.300,2298.000,0.500,2714.000,1.000,894.000,5.000,0
"03/11/08","06:12:54",34924.000,"cc",28311.863,6.00,6,0.100,24986.000,0.200,4068.000,0.300,2209.000,0.500,2748.000,1.000,913.000,5.000,0
"03/11/08","06:13:00",34789.000,"cc",28401.264,6.00,6,0.100,25156.000,0.200,3891.000,0.300,2224.000,0.500,2653.000,1.000,865.000,5.000,0
"03/11/08","06:13:06",34876.000,"cc",28367.430,6.00,6,0.100,25071.000,0.200,4042.000,0.300,2197.000,0.500,2650.000,1.000,916.000,5.000,0
"03/11/08","06:13:12",35603.000,"cc",28245.635,6.00,6,0.100,25373.000,0.200,4141.000,0.300,2309.000,0.500,2812.000,1.000,968.000,5.000,0
"03/11/08","06:13:18",34392.000,"cc",28405.873,6.00,6,0.100,25037.000,0.200,3862.000,0.300,2114.000,0.500,2549.000,1.000,830.000,5.000,0
"03/11/08","06:13:24",36408.000,"cc",28205.957,6.00,6,0.100,25633.000,0.200,4507.000,0.300,2506.000,0.500,2873.000,1.000,889.000,5.000,0
"03/11/08","06:13:30",35809.000,"cc",28294.184,6.00,6,0.100,25484.000,0.200,4219.000,0.300,2278.000,0.500,2844.000,1.000,984.000,5.000,0
"03/11/08","06:13:36",35429.000,"cc",28287.627,6.00,6,0.100,25180.000,0.200,4042.000,0.300,2376.000,0.500,2844.000,1.000,987.000,5.000,0
"03/11/08","06:13:42",35351.000,"cc",28353.629,6.00,6,0.100,25526.000,0.200,3930.000,0.300,2252.000,0.500,2681.000,1.000,962.000,5.000,0
"03/11/08","06:13:48",35267.000,"cc",28212.625,6.00,6,0.100,25157.000,0.200,4166.000,0.300,2300.000,0.500,2694.000,1.000,950.000,5.000,0
"03/11/08","06:13:54",35744.000,"cc",28390.084,6.00,6,0.100,25265.000,0.200,4281.000,0.300,2334.000,0.500,2880.000,1.000,984.000,5.000,0
"03/11/08","06:14:00",35663.000,"cc",28245.438,6.00,6,0.100,25336.000,0.200,4123.000,0.300,2330.000,0.500,2886.000,1.000,988.000,5.000,0
"03/11/08","06:14:06",35670.000,"cc",28290.025,6.00,6,0.100,25422.000,0.200,4154.000,0.300,2239.000,0.500,2873.000,1.000,982.000,5.000,0
"03/11/08","06:14:12",34404.000,"cc",28558.299,6.00,6,0.100,24914.000,0.200,3971.000,0.300,2147.000,0.500,2529.000,1.000,843.000,5.000,0
"03/11/08","06:14:18",34659.000,"cc",28309.029,6.00,6,0.100,25050.000,0.200,4099.000,0.300,2169.000,0.500,2485.000,1.000,856.000,5.000,0
"03/11/08","06:14:24",34875.000,"cc",28227.387,6.00,6,0.100,25223.000,0.200,3987.000,0.300,2157.000,0.500,2568.000,1.000,940.000,5.000,0
"03/11/08","06:14:30",34931.000,"cc",28290.346,6.00,6,0.100,25231.000,0.200,4009.000,0.300,2144.000,0.500,2641.000,1.000,906.000,5.000,0
"03/11/08","06:14:36",34378.000,"cc",28463.531,6.00,6,0.100,24883.000,0.200,3988.000,0.300,2154.000,0.500,2502.000,1.000,851.000,5.000,0
"03/11/08","06:14:42",34141.000,"cc",28255.322,6.00,6,0.100,24877.000,0.200,4013.000,0.300,2012.000,0.500,2423.000,1.000,816.000,5.000,0
"03/11/08","06:14:48",33986.000,"cc",28328.139,6.00,6,0.100,24746.000,0.200,3787.000,0.300,2119.000,0.500,2513.000,1.000,821.000,5.000,0
"03/11/08","06:14:54",34126.000,"cc",28326.889,6.00,6,0.100,24706.000,0.200,3904.000,0.300,2051.000,0.500,2534.000,1.000,931.000,5.000,0
"03/11/08","06:15:00",35574.000,"cc",28342.016,6.00,6,0.100,25471.000,0.200,4195.000,0.300,2270.000,0.500,2690.000,1.000,948.000,5.000,0
"03/11/08","06:15:06",35020.000,"cc",28241.344,6.00,6,0.100,25107.000,0.200,4115.000,0.300,2181.000,0.500,2675.000,1.000,942.000,5.000,0
"03/11/08","06:15:12",34671.000,"cc",28349.014,6.00,6,0.100,25030.000,0.200,4048.000,0.300,2098.000,0.500,2591.000,1.000,904.000,5.000,0
"03/11/08","06:15:18",34752.000,"cc",28063.910,6.00,6,0.100,25065.000,0.200,3978.000,0.300,2194.000,0.500,2614.000,1.000,901.000,5.000,0
"03/11/08","06:15:24",35353.000,"cc",28271.801,6.00,6,0.100,25197.000,0.200,4255.000,0.300,2285.000,0.500,2755.000,1.000,861.000,5.000,0
"03/11/08","06:15:30",36336.000,"cc",28471.020,6.00,6,0.100,25975.000,0.200,4280.000,0.300,2443.000,0.500,2754.000,1.000,884.000,5.000,0
"03/11/08","06:15:36",34609.000,"cc",28325.926,6.00,6,0.100,24922.000,0.200,3985.000,0.300,2129.000,0.500,2663.000,1.000,910.000,5.000,0
"03/11/08","06:15:42",34548.000,"cc",28327.260,6.00,6,0.100,24861.000,0.200,4030.000,0.300,2070.000,0.500,2669.000,1.000,918.000,5.000,0
"03/11/08","06:15:48",34118.000,"cc",28317.986,6.00,6,0.100,24813.000,0.200,3935.000,0.300,2034.000,0.500,2491.000,1.000,845.000,5.000,0
"03/11/08","06:15:54",35220.000,"cc",28202.889,6.00,6,0.100,25033.000,0.200,4070.000,0.300,2268.000,0.500,2835.000,1.000,1014.000,5.000,0
"03/11/08","06:16:00",35586.000,"cc",28375.443,6.00,6,0.100,25565.000,0.200,4235.000,0.300,2239.000,0.500,2700.000,1.000,847.000,5.000,0
"03/11/08","06:16:06",35408.000,"cc",28327.889,6.00,6,0.100,25323.000,0.200,4168.000,0.300,2324.000,0.500,2653.000,1.000,940.000,5.000,0
"03/11/08","06:16:12",34781.000,"cc",28300.318,6.00,6,0.100,25107.000,0.200,4025.000,0.300,2144.000,0.500,2611.000,1.000,894.000,5.000,0
"03/11/08","06:16:18",34664.000,"cc",28348.445,6.00,6,0.100,24831.000,0.200,4143.000,0.300,2178.000,0.500,2625.000,1.000,887.000,5.000,0